Powrót do katalogu

STARLINK-30853

AktywnyŁącznośćVLEO
NORAD 58236·PAYLOAD·🇺🇸 United States

Wystrzelony Nov 8, 2023 z Cape Canaveral Space Force Station

Loading…

Następne Przeloty (najbliższe 24 godziny)

TLE

ŚwieżeSource: CelesTrak SupGP

Epoka: Sep 14, 2026, 14:44 UTC

1 58236C 23171G   26257.61437500  .00048085  00000+0  17412-2 0  2574
2 58236  43.0008 298.5842 0001533 272.3302 125.2407 15.27562071    18

Śledź STARLINK-30853 w czasie rzeczywistym z AllMySat

Download on the App Store